Regional Weather Roundup
Issued by NWS Jackson, KY

Home | Current Version | Previous Version | Graphics & Text | Print | Product List | Glossary On
Versions: 1 2 3 4 5 6 7 8 9 10 11 12 13 14 15 16 17 18 19 20 21 22 23 24 25 26 27 28 29 30 31 32 33 34 35 36 37 38 39 40 41 42 43 44 45 46 47 48 49 50
000
ASUS43 KJKL 260210
RWRJKL

EAST KENTUCKY HOURLY WEATHER ROUNDUP
NATIONAL WEATHER SERVICE JACKSON KY
1000 PM EDT TUE JUL 25 2017

NOTE: "FAIR" INDICATES FEW OR NO CLOUDS BELOW 12,000 FEET WITH
NO SIGNIFICANT WEATHER AND/OR OBSTRUCTIONS TO VISIBILITY.

* THESE REPORTS ARE NOT UNDER NWS QUALITY CONTROL AND MAY NOT
  REPORT WEATHER SUCH AS PRECIPITATION AND FOG.

KYZ079-080-083-085-087-088-110-112-115-119-120-260300
...EASTERN KENTUCKY...

CITY           SKY/WX    TMP DP  RH WIND       PRES   REMARKS
JACKSON        CLEAR     71  61  70 CALM      30.17R
LONDON         CLEAR     75  65  70 N7        30.15R
SOMERSET*      CLEAR     73  63  68 N5        30.15R
MONTICELLO*    CLEAR     70  68  93 W8        30.15R
WILLIAMSBURG*  CLEAR     73  68  83 N3        30.15R
MIDDLESBORO*   CLEAR     73  67  80 NW5       30.15R
PIKE CO APT*     N/A     70  63  78 N6        30.19R
BIG SANDY APT* CLEAR     67  63  85 NE6       30.18R
MOREHEAD APT*  CLEAR     68  61  77 NE6       30.20R
ASHLAND*       CLEAR     68  64  88 CALM      30.17
$$

KYZ035-036-041-042-044-050-067-078-099-260300
...CENTRAL KENTUCKY...

CITY           SKY/WX    TMP DP  RH WIND       PRES   REMARKS
MT STERLING*   CLEAR     72  63  73 E5        30.19R
FLEMING/MASON* CLEAR     67  63  85 E5        30.20R
DANVILLE*      CLEAR     72  64  78 NE3       30.16S
LEXINGTON      CLEAR     73  59  61 E7        30.16S
FRANKFORT      CLEAR     76  59  55 NE5       30.15R
LOUISVILLE     PTCLDY    81  64  56 E8        30.11S
LEBANON*         N/A     75  64  69 NE3       30.14S
GLASGOW*       CLEAR     78  67  68 E3        30.12R
BOWLING GREEN  CLEAR     81  71  71 NE7       30.10R
$$

KYZ091>093-OHZ055-061-077-WVZ005-015-034-035-042-260300
...SOUTHERN OHIO/WEST VIRGINIA...

CITY           SKY/WX    TMP DP  RH WIND       PRES   REMARKS
COVINGTON      PTCLDY    72  63  73 E9        30.16F
COLUMBUS       PTCLDY    70  62  76 E6        30.20R
DAYTON         PTCLDY    68  59  73 E6        30.20S
WILMINGTON     CLEAR     65  62  90 E5        30.19F
HUNTINGTON     CLEAR     68  59  73 NE6       30.18S
CHARLESTON     CLEAR     68  59  73 NE3       30.19R
PINEVILLE*     CLEAR     65  63  93 MISG      30.25R
BECKLEY        CLEAR     64  58  80 CALM      30.24R
BLUEFIELD      CLEAR     68  57  68 E3        30.25R
LOGAN CO APT*    N/A     70  59  68 CALM      30.20R
$$

VAZ002-007-008-TNZ017-027-036-066-071-260300
...SOUTHWEST VIRGINIA/EAST TENNESSEE...

CITY           SKY/WX    TMP DP  RH WIND       PRES   REMARKS
WISE*          CLEAR     70  61  73 NE5       30.24R
JONESVILLE*      N/A     73  70  88 CALM      30.17R
ABINGDON*      CLEAR     75  64  69 SE3       30.20R
BRISTOL        PTCLDY    77  66  68 CALM      30.16R
MORRISTOWN*    PTCLDY    81  70  69 CALM      30.13R
SEVIERVILLE*   PTCLDY    79  63  57 CALM      30.12R
KNOXVILLE      PTCLDY    80  65  59 CALM      30.10S
LAFOLLETTE*    CLEAR     73  68  83 CALM      30.16S
OAK RIDGE      CLEAR     78  67  68 CALM      30.13R
CROSSVILLE     CLEAR     76  67  73 NE3       30.18R
NASHVILLE      MOCLDY    82  73  74 CALM      30.09R
$$

...KEY TO REMARKS...
VSB - VISIBILITY IN MILES
WCI - WIND CHILL INDEX
HX  - HEAT INDEX

$$



USA.gov is the U.S. government's official web portal to all federal, state and local government web resources and services.